This is the latest recevied weather packets stored in our database for station/object K3TLB-13. If no packets are shown the sender has not sent any weather packets the latest 1 day(s).
| Time | Temp. | Humidity | Pressure | Rain* | Wind** | Luminosity | Snow |
|---|---|---|---|---|---|---|---|
| 1778029740 | 22.78° C | 37% | 1008.7 hPa | 0 mm | 1.79 m/s, 209° | - | - |
| 1778029440 | 22.78° C | 36% | 1008.6 hPa | 0 mm | 2.24 m/s, 193° | - | - |
| 1778029140 | 22.78° C | 36% | 1008.5 hPa | 0 mm | 1.79 m/s, 217° | - | - |
| 1778028840 | 22.78° C | 36% | 1008.5 hPa | 0 mm | 1.34 m/s, 199° | - | - |
| 1778028710 | 22.78° C | 37% | 1008.4 hPa | 0 mm | 0.89 m/s, 139° | - | - |
| 1778028584 | 22.78° C | 37% | 1008.4 hPa | 0 mm | 0.89 m/s, 139° | - | - |
| 1778028540 | 22.78° C | 37% | 1008.4 hPa | 0 mm | 0.89 m/s, 139° | - | - |
| 1778028240 | 23.33° C | 36% | 1008.4 hPa | 0 mm | 1.34 m/s, 163° | - | - |
| 1778027940 | 23.33° C | 36% | 1008.3 hPa | 0 mm | 1.79 m/s, 190° | - | - |
| 1778027766 | 23.33° C | 36% | 1008.2 hPa | 0 mm | 1.79 m/s, 157° | - | - |
| 1778027640 | 23.33° C | 36% | 1008.2 hPa | 0 mm | 1.79 m/s, 157° | - | - |
| 1778027340 | 23.33° C | 35% | 1008.1 hPa | 0 mm | 1.34 m/s, 165° | - | - |
| 1778027078 | 23.33° C | 35% | 1008 hPa | 0 mm | 1.34 m/s, 240° | - | - |
| 1778027042 | 23.33° C | 35% | 1008 hPa | 0 mm | 1.34 m/s, 240° | - | - |
| 1778026741 | 23.89° C | 36% | 1007.9 hPa | 0 mm | 1.34 m/s, 198° | - | - |
| 1778026440 | 23.89° C | 35% | 1008 hPa | 0 mm | 2.24 m/s, 162° | - | - |
| 1778026260 | 23.89° C | 35% | 1007.9 hPa | 0 mm | 2.24 m/s, 180° | - | - |
| 1778026204 | 23.89° C | 35% | 1007.9 hPa | 0 mm | 2.24 m/s, 180° | - | - |
| 1778026140 | 23.89° C | 35% | 1007.9 hPa | 0 mm | 2.24 m/s, 180° | - | - |
| 1778025935 | 23.89° C | 35% | 1007.9 hPa | 0 mm | 1.79 m/s, 223° | - | - |
| 1778025880 | 23.89° C | 35% | 1007.9 hPa | 0 mm | 1.79 m/s, 223° | - | - |
| 1778025840 | 23.89° C | 35% | 1007.9 hPa | 0 mm | 1.79 m/s, 223° | - | - |
| 1778025540 | 23.89° C | 35% | 1007.8 hPa | 0 mm | 1.79 m/s, 143° | - | - |
| 1778025242 | 24.44° C | 36% | 1007.9 hPa | 0 mm | 1.79 m/s, 185° | - | - |
| 1778024943 | 24.44° C | 35% | 1007.8 hPa | 0 mm | 1.79 m/s, 146° | - | - |
* Rain latest hour (hover to see other rain measurements)
** Current wind speed in m/s (hover to see current wind gust speed)